Location: Unspecified
(0.0000°N, 0.0000°E)
Time: 07:09:25
(UTC+01:00)

ITAMSAT 1 - Visible Passes

Search period start: 20 November 2017 00:00
Search period end: 30 November 2017 00:00
Orbit: 785 x 796 km, 98.8° (Epoch: 19 November)

Date Brightness Start Highest point End Pass type
(mag) Time Alt. Az. Time Alt. Az. Time Alt. Az.
20 Nov 10.2 03:49:15 14° SSE 03:49:15 14° SSE 03:50:14 10° SSE visible
21 Nov 9.8 05:00:11 13° SW 05:00:11 13° SW 05:00:46 10° SSW visible
22 Nov 9.6 04:30:22 19° S 04:30:22 19° S 04:31:46 10° S visible
23 Nov 10.0 04:00:35 17° SSE 04:00:35 17° SSE 04:01:58 10° SSE visible
24 Nov 10.6 03:30:48 11° SE 03:30:48 11° SE 03:30:59 10° SE visible
24 Nov 9.8 05:11:31 11° SW 05:11:31 11° SW 05:11:45 10° SW visible
25 Nov 9.5 04:41:43 18° SSW 04:41:43 18° SSW 04:43:03 10° SSW visible
26 Nov 9.7 04:11:57 20° SSE 04:11:57 20° SSE 04:13:34 10° S visible
27 Nov 10.3 03:42:10 14° SE 03:42:10 14° SE 03:43:08 10° SSE visible
28 Nov 9.6 04:53:07 17° SSW 04:53:07 17° SSW 04:54:15 10° SSW visible
29 Nov 9.6 04:23:20 21° S 04:23:20 21° S 04:25:02 10° S visible
